This is the latest recevied weather packets stored in our database for station/object DC1MPP-9. If no packets are shown the sender has not sent any weather packets the latest 10 day(s).
| Time | Temp. | Humidity | Pressure | Rain* | Wind** | Luminosity | Snow |
|---|---|---|---|---|---|---|---|
| 1777632678 | 19.44° C | 31% | 969 hPa | - | - | - | - |
| 1777632437 | 18.89° C | 30% | 969 hPa | - | - | - | - |
| 1777632196 | 18.89° C | 29% | 969 hPa | - | - | - | - |
| 1777631955 | 19.44° C | 29% | 969 hPa | - | - | - | - |
| 1777631714 | 18.89° C | 31% | 969 hPa | - | - | - | - |
| 1777631473 | 18.33° C | 31% | 969 hPa | - | - | - | - |
| 1777631231 | 18.33° C | 30% | 969 hPa | - | - | - | - |
| 1777630991 | 18.89° C | 32% | 969 hPa | - | - | - | - |
| 1777630749 | 18.89° C | 31% | 969 hPa | - | - | - | - |
| 1777630508 | 18.33° C | 29% | 969 hPa | - | - | - | - |
| 1777630026 | 17.78° C | 30% | 969 hPa | - | - | - | - |
| 1777629785 | 17.78° C | 31% | 969 hPa | - | - | - | - |
| 1777629544 | 17.78° C | 30% | 969 hPa | - | - | - | - |
| 1777629303 | 17.78° C | 30% | 969 hPa | - | - | - | - |
| 1777629062 | 17.22° C | 29% | 969 hPa | - | - | - | - |
| 1777628821 | 17.22° C | 31% | 969 hPa | - | - | - | - |
| 1777628580 | 17.78° C | 29% | 969 hPa | - | - | - | - |
| 1777628339 | 17.22° C | 30% | 969 hPa | - | - | - | - |
| 1777627857 | 17.22° C | 29% | 969 hPa | - | - | - | - |
| 1777627616 | 16.67° C | 31% | 969 hPa | - | - | - | - |
| 1777627375 | 16.11° C | 30% | 969 hPa | - | - | - | - |
| 1777627134 | 16.11° C | 30% | 969 hPa | - | - | - | - |
| 1777626893 | 16.67° C | 36% | 969 hPa | - | - | - | - |
| 1777626652 | 16.11° C | 30% | 969 hPa | - | - | - | - |
| 1777626411 | 15.56° C | 32% | 969 hPa | - | - | - | - |
* Rain since midnight (hover to see other rain measurements)
** Current wind speed in m/s (hover to see current wind gust speed)